When you browse on this site, cookies collect data to enhance your experience and personalize the content and advertising you see.
Visit our Privacy Policy to learn more. By continuing to use the site, you agree to this use of cookies and data.
  • En España
  • Lista de países
  • Para 7 días
  • Temperatura del agua
  • El tiempo en el mapa
  • Informadores
  • user-avatar
    Iniciar sesión

    Tiempo cada hora Middlesbrough

    Hoy, 7 Diciembre, Sábado

    Tiempo Temperatura Precipitaciones Viento Presión Humedad
    00:00 +7°C° 0 mm 6 mps 751 mmHg 85%
    01:00 +7°C° 0 mm 6 mps 751 mmHg 86%
    02:00 +7°C° 0 mm 6 mps 752 mmHg 87%
    03:00 +5°C° 0 mm 6 mps 752 mmHg 87%
    04:00 +7°C° 0 mm 6 mps 752 mmHg 87%
    05:00 +7°C° 0 mm 6 mps 753 mmHg 86%
    06:00 +7°C° 0 mm 4 mps 753 mmHg 87%
    07:00 +7°C° 0 mm 5 mps 754 mmHg 87%
    08:00 +7°C° 0 mm 5 mps 754 mmHg 87%
    09:00 +6°C° 0 mm 5 mps 754 mmHg 87%
    10:00 +7°C° 0 mm 6 mps 754 mmHg 85%
    11:00 +8°C° 0 mm 6 mps 754 mmHg 83%
    12:00 +8°C° 0 mm 6 mps 754 mmHg 82%
    13:00 +8°C° 0 mm 6 mps 753 mmHg 82%
    14:00 +8°C° 0 mm 7 mps 753 mmHg 82%
    15:00 +8°C° 0 mm 7 mps 752 mmHg 82%
    16:00 +7°C° 0 mm 8 mps 751 mmHg 84%
    17:00 +7°C° 0 mm 8 mps 750 mmHg 86%
    18:00 +7°C° 0 mm 8 mps 750 mmHg 87%
    19:00 +7°C° 0 mm 8 mps 749 mmHg 86%
    20:00 +7°C° 0 mm 8 mps 747 mmHg 85%
    21:00 +8°C° 0 mm 9 mps 746 mmHg 84%
    22:00 +8°C° 0.2 mm 10 mps 745 mmHg 85%
    23:00 +8°C° 0.2 mm 11 mps 743 mmHg 85%

    Mañana, 8 Diciembre, Domingo

    Tiempo Temperatura Precipitaciones Viento Presión Humedad
    00:00 +8°C° 0.2 mm 12 mps 741 mmHg 86%
    01:00 +9°C° 0.2 mm 11 mps 741 mmHg 81%
    02:00 +9°C° 0.2 mm 11 mps 740 mmHg 77%
    03:00 +9°C° 0.2 mm 11 mps 739 mmHg 72%
    04:00 +8°C° 0 mm 11 mps 740 mmHg 73%
    05:00 +6°C° 0 mm 10 mps 740 mmHg 74%
    06:00 +5°C° 0 mm 10 mps 741 mmHg 75%
    07:00 +5°C° 0 mm 10 mps 741 mmHg 74%
    08:00 +5°C° 0 mm 10 mps 741 mmHg 74%
    09:00 +5°C° 0 mm 10 mps 741 mmHg 74%
    10:00 +4°C° 0 mm 11 mps 741 mmHg 73%
    11:00 +4°C° 0 mm 12 mps 740 mmHg 72%
    12:00 +4°C° 0 mm 12 mps 740 mmHg 72%
    13:00 +4°C° 0 mm 12 mps 739 mmHg 71%
    14:00 +4°C° 0 mm 12 mps 739 mmHg 70%
    15:00 +4°C° 0 mm 12 mps 738 mmHg 69%
    16:00 +3°C° 0 mm 11 mps 737 mmHg 72%
    17:00 +3°C° 0 mm 11 mps 737 mmHg 74%
    18:00 +3°C° 0 mm 11 mps 736 mmHg 77%
    19:00 +2°C° 0.1 mm 10 mps 736 mmHg 80%
    20:00 +2°C° 0.1 mm 10 mps 735 mmHg 84%
    21:00 +2°C° 0.1 mm 9 mps 734 mmHg 87%
    22:00 +2°C° 0.1 mm 8 mps 734 mmHg 86%
    23:00 +3°C° 0.1 mm 7 mps 733 mmHg 84%

    Pasado mañana, 9 Diciembre, Lunes

    Tiempo Temperatura Precipitaciones Viento Presión Humedad
    00:00 +4°C° 0.1 mm 6 mps 733 mmHg 83%
    01:00 +4°C° 0.2 mm 6 mps 734 mmHg 84%
    02:00 +4°C° 0.2 mm 7 mps 734 mmHg 86%
    03:00 +4°C° 0.2 mm 8 mps 735 mmHg 87%
    04:00 +3°C° 0.6 mm 10 mps 738 mmHg 85%
    05:00 +3°C° 0.6 mm 13 mps 741 mmHg 83%
    06:00 +2°C° 0.6 mm 16 mps 744 mmHg 81%
    07:00 +1°C° 0.1 mm 14 mps 746 mmHg 77%
    08:00 +1°C° 0.1 mm 13 mps 749 mmHg 73%
    09:00 0°C° 0.1 mm 12 mps 751 mmHg 69%
    10:00 +2°C° 0 mm 12 mps 753 mmHg 67%
    11:00 +2°C° 0 mm 11 mps 754 mmHg 65%
    12:00 +2°C° 0 mm 11 mps 756 mmHg 63%
    13:00 +1°C° 0 mm 10 mps 757 mmHg 65%
    14:00 +1°C° 0 mm 8 mps 758 mmHg 66%
    15:00 +2°C° 0 mm 7 mps 759 mmHg 68%
    16:00 +1°C° 0 mm 6 mps 760 mmHg 71%
    17:00 +1°C° 0 mm 6 mps 761 mmHg 73%
    18:00 0°C° 0 mm 5 mps 762 mmHg 75%
    19:00 0°C° 0 mm 5 mps 762 mmHg 77%
    20:00 0°C° 0 mm 4 mps 763 mmHg 78%
    21:00 +1°C° 0 mm 3 mps 763 mmHg 80%
    22:00 +1°C° 0 mm 3 mps 763 mmHg 82%
    23:00 0°C° 0 mm 4 mps 763 mmHg 85%

    10 Diciembre, Martes

    Tiempo Temperatura Precipitaciones Viento Presión Humedad
    00:00 0°C° 0 mm 5 mps 763 mmHg 87%
    01:00 0°C° 0 mm 5 mps 762 mmHg 86%
    02:00 +1°C° 0 mm 6 mps 761 mmHg 85%
    03:00 +1°C° 0 mm 6 mps 760 mmHg 85%
    04:00 +2°C° 0 mm 7 mps 759 mmHg 85%
    05:00 +1°C° 0 mm 8 mps 758 mmHg 86%
    06:00 +2°C° 0 mm 9 mps 756 mmHg 87%
    07:00 +2°C° 0.3 mm 11 mps 755 mmHg 87%
    08:00 +3°C° 0.3 mm 12 mps 754 mmHg 88%
    09:00 +4°C° 0.3 mm 13 mps 752 mmHg 88%
    10:00 +5°C° 0.4 mm 13 mps 751 mmHg 87%
    11:00 +7°C° 0.4 mm 12 mps 749 mmHg 86%
    12:00 +8°C° 0.4 mm 12 mps 748 mmHg 85%
    13:00 +9°C° 0 mm 12 mps 746 mmHg 84%
    14:00 +9°C° 0 mm 12 mps 744 mmHg 83%
    15:00 +10°C° 0 mm 12 mps 743 mmHg 82%
    16:00 +10°C° 0.7 mm 12 mps 742 mmHg 83%
    17:00 +10°C° 0.7 mm 12 mps 741 mmHg 84%
    18:00 +10°C° 0.7 mm 12 mps 741 mmHg 86%
    19:00 +8°C° 0.6 mm 11 mps 742 mmHg 86%
    20:00 +6°C° 0.6 mm 10 mps 742 mmHg 85%
    21:00 +5°C° 0.6 mm 9 mps 743 mmHg 85%
    22:00 +3°C° 0 mm 9 mps 744 mmHg 82%
    23:00 +3°C° 0 mm 9 mps 745 mmHg 79%

    11 Diciembre, Miércoles

    Tiempo Temperatura Precipitaciones Viento Presión Humedad
    00:00 +3°C° 0 mm 9 mps 746 mmHg 76%
    01:00 +2°C° 0 mm 9 mps 747 mmHg 76%
    02:00 +2°C° 0 mm 9 mps 747 mmHg 75%
    03:00 +2°C° 0 mm 9 mps 748 mmHg 75%
    04:00 +1°C° 0 mm 9 mps 748 mmHg 75%
    05:00 +1°C° 0 mm 8 mps 748 mmHg 75%
    06:00 +1°C° 0 mm 8 mps 749 mmHg 75%
    07:00 +1°C° 0 mm 8 mps 748 mmHg 78%
    08:00 +1°C° 0 mm 8 mps 748 mmHg 80%
    09:00 +1°C° 0 mm 8 mps 748 mmHg 82%
    10:00 +1°C° 0.1 mm 8 mps 748 mmHg 79%
    11:00 +2°C° 0.1 mm 8 mps 747 mmHg 76%
    12:00 +4°C° 0.1 mm 8 mps 747 mmHg 72%
    13:00 +2°C° 0 mm 8 mps 747 mmHg 74%
    14:00 +2°C° 0 mm 8 mps 747 mmHg 75%
    15:00 +3°C° 0 mm 7 mps 746 mmHg 76%
    16:00 +2°C° 0 mm 7 mps 747 mmHg 77%
    17:00 +2°C° 0 mm 7 mps 747 mmHg 78%
    18:00 0°C° 0 mm 7 mps 747 mmHg 80%
    19:00 0°C° 0 mm 7 mps 747 mmHg 79%
    20:00 0°C° 0 mm 7 mps 748 mmHg 78%
    21:00 0°C° 0 mm 7 mps 748 mmHg 78%
    22:00 0°C° 0 mm 7 mps 748 mmHg 77%
    23:00 0°C° 0 mm 7 mps 748 mmHg 77%

    12 Diciembre, Jueves

    Tiempo Temperatura Precipitaciones Viento Presión Humedad
    00:00 0°C° 0 mm 8 mps 748 mmHg 77%
    01:00 0°C° 0 mm 8 mps 748 mmHg 77%
    02:00 0°C° 0 mm 8 mps 748 mmHg 78%
    03:00 0°C° 0 mm 8 mps 748 mmHg 78%
    04:00 0°C° 0 mm 7 mps 748 mmHg 81%
    05:00 0°C° 0 mm 7 mps 748 mmHg 84%
    06:00 0°C° 0 mm 7 mps 747 mmHg 87%
    07:00 0°C° 0.1 mm 7 mps 746 mmHg 89%
    08:00 +2°C° 0.1 mm 7 mps 745 mmHg 91%
    09:00 +2°C° 0.1 mm 7 mps 745 mmHg 93%
    10:00 +2°C° 0.3 mm 8 mps 743 mmHg 92%
    11:00 +4°C° 0.3 mm 8 mps 742 mmHg 92%
    12:00 +4°C° 0.3 mm 8 mps 740 mmHg 91%
    13:00 +5°C° 0.8 mm 8 mps 739 mmHg 91%
    14:00 +6°C° 0.8 mm 8 mps 737 mmHg 91%
    15:00 +6°C° 0.8 mm 9 mps 736 mmHg 91%
    16:00 +6°C° 0.1 mm 8 mps 735 mmHg 88%
    17:00 +5°C° 0.1 mm 8 mps 735 mmHg 85%
    18:00 +5°C° 0.1 mm 7 mps 734 mmHg 81%
    19:00 +5°C° 0.3 mm 7 mps 733 mmHg 84%
    20:00 +5°C° 0.3 mm 7 mps 732 mmHg 88%
    21:00 +5°C° 0.3 mm 6 mps 732 mmHg 91%
    22:00 +5°C° 0.4 mm 7 mps 731 mmHg 86%
    23:00 +3°C° 0.4 mm 9 mps 731 mmHg 81%
    Mostrar más